Simultaneous Nadir Overpasses (SNOs) Predictions

Prediction of SNOs between GOES-16 and TERRA Satellite Orbit:

Table of predicted SNOs for the next 14.0 days since TLE Epoch: 1/14/2017
Index Date Time (GOES-16) GOES-16 Lat,Lon TERRA Lat,Lon Distance(km) Time Diff (sec)
1 01/14/2017 04:19:19 -0.01, -89.46 0.54, -87.00 280.41 80
2 01/14/2017 16:37:54 0.00, -89.48 0.57, -92.15 302.97 80
3 01/16/2017 16:28:21 0.01, -89.49 -0.04, -89.18 34.59 80
4 01/18/2017 16:16:08 0.01, -89.50 -0.65, -86.22 372.59 80
5 01/19/2017 04:34:52 -0.01, -89.48 -0.43, -91.41 220.06 80
6 01/21/2017 04:25:19 -0.01, -89.50 0.20, -88.45 118.43 80
7 01/21/2017 16:43:55 0.01, -89.53 0.85, -93.62 464.80 80
8 01/23/2017 04:13:06 -0.01, -89.51 0.83, -85.49 457.16 80
9 01/23/2017 16:31:41 0.01, -89.54 0.28, -90.64 126.02 80
10 01/25/2017 16:22:08 0.01, -89.56 -0.37, -87.69 213.10 80
11 01/26/2017 04:40:52 -0.01, -89.54 -0.70, -92.88 379.05 80




NCC Satellite Simultaneous Nadir Overpasses (SNOs) Prediction Service
